Wind_Speed
67 68 68 67 68 70 72 76 78 78 79 83 85 87 86 85 84 81 80 76 72 70 68 65 62 62 67 71 74 76 74 72 72 71 80 85 89 93 93 94 90 87 83 77 72
74 72 73 73 75 76 77 79 82 84 86 87 90 91 92 90 90 85 80 78 76 71 66 63 62 62 64 68 67 67 65 71 74 74 82 89 95 96 95 97 92 89 86 76 76
78 81 79 79 81 82 84 85 88 89 90 93 95 94 96 94 92 90 85 80 78 72 67 65 64 62 61 61 62 60 61 71 76 79 83 87 96 99 100 99 93 90 88 76 66
78 81 84 86 88 90 89 89 92 95 95 98 100 100 99 100 99 92 83 81 77 73 69 66 61 59 58 57 56 55 62 70 75 81 82 85 94 101 102 100 97 92 88 71 64
79 83 87 90 91 95 93 95 98 100 100 104 104 103 101 104 99 91 84 80 75 73 72 66 60 56 52 51 48 52 61 67 76 81 81 88 95 101 103 103 100 95 90 78 60
81 84 91 93 96 100 101 104 104 106 106 109 108 105 104 103 97 89 84 79 77 75 69 64 57 48 45 45 44 53 57 65 74 78 81 88 94 100 104 106 102 97 95 92 66
83 87 92 97 102 105 108 108 108 110 112 112 110 106 109 105 98 89 86 80 78 74 69 61 53 43 40 39 45 49 55 65 70 76 84 91 96 101 103 105 102 99 97 94 68
85 89 96 100 102 108 113 114 112 114 116 114 112 112 112 105 100 91 85 82 80 73 65 54 46 39 34 36 40 46 53 61 69 77 85 92 96 100 106 107 103 102 99 95 82
87 90 96 100 105 109 114 120 118 118 122 117 115 114 112 108 100 90 87 83 77 72 58 46 37 31 28 29 35 42 50 60 71 78 89 91 99 102 106 105 102 104 101 96 92
91 91 98 103 107 111 116 122 125 125 124 121 117 117 115 112 98 91 90 83 75 66 52 39 31 27 26 26 34 44 53 63 71 80 88 91 98 102 106 105 102 100 102 100 97
95 93 98 104 109 113 118 123 128 130 128 126 117 118 115 107 98 93 91 79 72 60 45 33 26 21 23 24 33 43 51 61 71 79 88 87 96 99 99 94 99 104 105 102 98
97 97 99 107 112 115 120 128 129 132 128 131 121 119 115 112 101 95 90 77 70 54 42 31 24 21 20 23 31 41 51 62 69 76 83 86 94 94 97 101 109 112 107 103 96
99 100 101 107 112 117 124 132 135 135 131 131 121 118 114 112 101 97 88 77 65 49 41 32 24 20 18 23 29 38 49 58 64 75 82 87 93 94 98 102 106 97 99 99 96
101 103 105 110 113 118 125 132 137 136 135 131 123 118 113 111 101 94 86 77 63 46 40 32 24 18 18 24 29 36 46 55 60 73 80 85 89 94 95 97 95 95 99 99 99
102 106 107 111 116 121 129 135 140 138 138 132 122 115 110 107 102 95 85 77 62 46 38 32 24 16 19 23 29 36 43 49 62 72 78 82 88 92 92 92 91 96 98 100 95
104 106 110 114 119 125 130 140 141 136 138 132 120 117 114 106 102 95 84 74 61 49 37 31 24 15 18 21 28 35 41 49 60 70 75 81 86 90 87 86 93 94 94 98 99
108 110 111 118 120 126 133 143 140 135 133 127 118 112 111 102 102 96 84 75 59 48 40 30 24 17 16 20 25 33 42 49 58 66 73 80 84 88 87 93 93 94 97 100 99
109 112 115 121 123 129 138 141 143 137 136 123 116 111 108 103 100 95 86 78 62 49 41 30 21 17 15 19 25 32 39 47 54 62 71 78 82 88 88 91 93 94 94 93 97
111 114 120 120 125 129 139 142 144 136 129 120 108 110 107 101 98 94 86 78 62 49 40 29 23 15 14 18 23 31 37 45 54 64 72 77 83 84 87 90 94 93 91 94 92
115 116 121 124 126 131 141 146 147 134 124 110 102 107 106 100 98 93 85 75 62 48 40 29 22 14 12 16 21 28 36 42 53 61 67 77 81 83 86 88 91 90 94 95 94
116 120 122 126 130 137 141 146 146 132 119 105 100 102 102 96 95 93 85 73 61 47 39 29 21 15 12 14 19 26 34 41 49 55 61 72 78 81 85 87 88 90 90 89 90
119 120 122 128 132 139 141 140 149 125 109 102 102 99 97 93 93 90 84 71 60 47 37 28 20 15 10 13 17 23 32 41 45 52 58 65 72 76 83 85 84 87 90 90 86
120 122 125 128 134 139 139 142 136 119 102 104 111 104 97 93 93 90 82 71 58 46 35 27 22 16 12 13 18 25 32 40 45 48 56 63 69 74 81 82 85 89 88 85 85
122 123 126 131 138 139 139 140 127 111 102 100 111 115 101 93 89 88 81 68 56 45 35 26 22 17 13 13 17 23 31 38 44 48 53 60 67 72 76 83 84 86 87 85 80
123 124 131 129 131 137 140 133 122 104 97 103 113 117 102 94 88 88 78 64 55 45 34 25 20 18 14 13 18 23 28 34 43 47 52 59 64 69 75 80 82 85 86 86 82
123 126 129 132 132 138 132 121 110 102 103 107 117 126 105 97 89 88 76 64 54 44 33 25 19 17 15 14 18 25 29 34 39 45 50 55 64 70 74 76 83 84 83 82 81
125 123 126 133 135 131 119 115 112 106 104 111 116 131 107 94 88 86 73 62 53 43 33 25 20 16 14 15 17 26 28 33 39 43 47 54 61 67 70 73 81 83 83 80 80
Wind_Direction
2 360 359 357 354 353 349 348 346 342 338 338 335 334 333 331 328 326 327 321 312 306 301 293 284 277 269 264 259 255 252 249 245 234 225 214 219 219 219 221 222 223 221 217 213
1 358 355 355 353 353 351 348 346 341 339 338 335 333 333 330 330 329 326 320 313 309 301 296 289 281 275 266 260 255 247 242 238 230 224 217 218 219 219 219 219 220 217 215 217
358 358 356 354 352 351 351 348 346 342 340 338 335 333 333 330 329 328 327 320 313 309 304 299 293 286 277 268 261 250 241 237 234 227 224 219 218 216 216 219 218 216 217 211 209
354 354 354 355 354 352 350 349 345 343 341 338 335 335 333 330 330 329 325 319 315 310 306 302 295 287 278 269 258 247 237 232 229 226 220 217 217 216 214 217 215 213 214 210 203
351 352 353 352 353 351 350 347 345 343 342 339 337 335 332 330 330 330 326 320 315 312 310 306 298 289 280 268 254 240 232 227 224 222 218 215 213 213 211 214 212 210 208 207 194
345 346 348 350 350 349 348 347 344 343 342 339 337 335 332 330 333 332 326 323 319 316 314 310 301 291 280 263 248 236 229 222 220 217 214 211 213 212 209 211 210 208 208 209 189
344 344 347 348 349 349 347 346 345 342 341 339 337 335 332 333 335 334 329 325 322 320 318 312 302 293 276 255 241 233 224 219 213 212 210 207 210 208 208 208 209 206 207 207 192
343 343 345 345 346 347 347 346 344 342 341 338 337 335 334 335 338 336 332 328 324 323 319 311 300 287 267 251 234 224 216 212 210 207 207 206 207 206 205 206 206 206 206 205 201
340 340 342 343 344 347 346 345 344 342 342 340 337 334 335 336 340 336 334 329 326 325 320 308 294 281 263 242 227 217 210 208 206 204 202 201 204 205 207 205 204 206 205 204 204
339 338 341 342 343 345 344 344 343 342 342 339 337 334 337 337 341 338 336 332 329 326 319 307 293 278 259 233 221 211 206 204 204 203 200 200 204 205 207 204 201 206 207 205 204
336 337 339 341 341 343 343 343 342 342 341 339 335 335 337 339 341 340 339 335 331 326 321 313 302 284 260 239 219 210 209 204 204 202 201 200 204 207 208 202 200 204 207 207 203
333 336 337 341 340 342 342 343 342 341 340 339 336 335 337 339 341 340 339 337 334 329 326 322 312 290 262 241 224 214 205 204 206 203 202 201 203 207 207 201 205 205 207 206 205
332 334 335 339 340 340 341 341 342 340 340 341 337 335 337 339 341 341 340 339 336 333 332 328 317 293 262 240 227 216 209 206 202 205 202 202 203 205 208 206 208 204 206 209 207
332 333 335 337 339 339 339 340 340 339 339 339 338 335 337 339 342 342 342 342 340 338 335 329 320 296 258 237 224 217 211 206 202 207 203 204 204 209 208 207 205 206 205 208 208
330 331 334 338 338 338 338 338 338 337 338 339 336 333 336 340 341 343 344 345 341 339 338 328 319 293 258 234 223 217 212 204 205 206 207 203 204 207 208 206 203 206 208 208 210
329 330 332 335 337 337 337 337 338 338 337 339 336 334 336 341 341 343 345 348 344 340 339 326 314 290 259 234 227 215 211 207 206 206 207 204 202 208 206 202 205 208 207 209 207
327 328 331 333 335 336 335 336 338 337 337 339 336 334 335 341 341 343 347 349 346 343 338 327 309 292 259 240 225 218 212 208 209 206 206 206 201 205 203 203 205 206 208 212 211
325 328 331 332 333 334 334 336 337 335 336 339 336 332 335 340 342 343 347 348 346 346 338 326 308 292 261 240 226 221 214 211 207 207 208 206 202 203 204 203 207 208 209 211 214
324 328 329 331 332 332 332 335 336 334 336 338 338 333 334 339 342 344 347 347 346 345 341 326 309 295 265 242 226 219 216 209 208 205 207 207 206 202 204 203 206 207 207 211 210
324 327 328 329 330 330 331 331 333 332 335 340 340 337 333 339 342 343 346 347 345 343 340 328 309 295 264 243 227 216 214 210 208 207 206 208 206 204 205 204 207 207 210 212 214
322 326 326 328 328 328 328 329 331 331 335 340 342 339 335 339 342 344 344 346 343 341 339 331 310 294 260 239 227 218 211 207 209 207 206 209 208 206 205 206 206 209 212 214 215
322 324 324 326 326 326 326 328 328 329 334 340 344 338 336 339 342 344 343 346 343 340 337 332 312 296 262 235 220 214 207 207 207 206 204 207 209 205 207 207 206 206 212 213 216
320 322 323 324 323 324 325 325 327 328 335 342 347 339 336 339 343 343 343 344 342 339 335 329 314 299 269 237 216 211 206 207 204 207 204 205 206 205 204 205 204 208 211 214 216
320 319 322 322 320 321 323 326 325 330 336 342 347 344 339 338 343 344 342 342 341 338 333 326 313 300 278 240 216 213 210 206 205 203 205 204 205 205 201 205 205 208 209 213 216
316 318 319 319 320 321 321 323 324 331 338 341 346 345 340 338 342 343 340 341 341 338 331 323 308 296 277 245 219 215 210 207 207 202 200 203 204 205 203 201 207 208 210 212 214
315 316 316 317 318 319 321 321 324 332 338 341 346 346 341 338 341 342 340 341 340 337 328 321 309 294 277 250 218 215 213 205 205 205 202 201 202 203 206 200 205 208 210 211 213
313 314 314 317 317 319 320 322 326 333 336 341 345 345 338 336 340 342 340 340 339 336 327 320 308 293 274 251 223 218 214 209 204 202 202 200 202 204 205 201 203 207 209 210 213
Height
10799 10792 10785 10778 10771 10761 10751 10741 10730 10718 10707 10696 10684 10671 10661 10647 10634 10620 10606 10592 10582 10570 10558 10550 10545 10543 10536 10528 10531 10531 10543 10555 10566 10578 10587 10597 10602 10607 10616 10621 10638 10654 10675 10693 10705
10795 10788 10780 10772 10762 10753 10743 10732 10721 10708 10697 10684 10670 10657 10646 10630 10616 10599 10588 10570 10555 10543 10534 10526 10519 10515 10508 10503 10507 10511 10524 10532 10538 10550 10561 10569 10574 10586 10599 10605 10624 10644 10662 10679 10694
10788 10780 10773 10765 10755 10745 10734 10722 10710 10698 10686 10672 10657 10643 10630 10612 10599 10583 10564 10549 10531 10518 10508 10502 10493 10487 10482 10480 10481 10489 10499 10501 10512 10522 10533 10549 10558 10571 10585 10592 10614 10638 10650 10670 10687
10783 10774 10765 10758 10749 10738 10727 10713 10701 10687 10673 10658 10643 10627 10611 10595 10577 10563 10546 10526 10511 10495 10485 10476 10466 10460 10455 10454 10459 10465 10468 10477 10488 10498 10512 10527 10539 10554 10570 10582 10603 10628 10643 10662 10677
10779 10770 10760 10751 10741 10731 10721 10705 10690 10676 10661 10645 10628 10611 10594 10577 10561 10545 10524 10506 10490 10476 10461 10451 10441 10434 10430 10429 10436 10439 10442 10454 10462 10478 10496 10506 10516 10532 10557 10565 10588 10612 10629 10645 10664
10774 10764 10754 10742 10731 10718 10707 10694 10677 10662 10647 10629 10611 10596 10577 10559 10542 10523 10502 10483 10467 10454 10440 10427 10416 10412 10409 10411 10414 10415 10425 10434 10445 10461 10477 10489 10498 10518 10539 10550 10572 10597 10613 10629 10649
10768 10758 10746 10734 10721 10707 10694 10681 10665 10649 10633 10614 10597 10579 10559 10539 10522 10500 10480 10461 10447 10433 10418 10405 10395 10393 10392 10394 10394 10401 10408 10417 10433 10449 10460 10472 10482 10505 10525 10538 10562 10583 10599 10619 10635
10763 10752 10739 10728 10715 10698 10680 10668 10652 10637 10621 10601 10581 10562 10540 10521 10503 10480 10463 10445 10426 10415 10400 10389 10380 10377 10377 10378 10381 10388 10396 10407 10419 10433 10445 10457 10475 10494 10507 10523 10549 10569 10588 10604 10618
10756 10745 10733 10720 10705 10690 10671 10656 10642 10624 10607 10583 10565 10544 10525 10506 10488 10468 10447 10430 10412 10396 10385 10375 10368 10365 10365 10366 10370 10378 10386 10395 10406 10419 10430 10449 10461 10476 10495 10513 10539 10555 10574 10590 10607
10748 10738 10727 10711 10698 10682 10664 10645 10629 10612 10592 10570 10550 10530 10514 10492 10472 10452 10432 10412 10398 10384 10373 10364 10357 10355 10355 10356 10359 10364 10371 10381 10396 10408 10422 10437 10448 10464 10479 10505 10527 10543 10559 10576 10595
10737 10728 10718 10704 10689 10675 10658 10641 10616 10599 10579 10562 10539 10517 10497 10480 10460 10441 10421 10402 10386 10373 10363 10355 10348 10346 10346 10349 10351 10355 10365 10374 10385 10400 10413 10432 10438 10455 10474 10502 10517 10528 10545 10563 10584
10728 10719 10709 10695 10679 10663 10648 10630 10615 10595 10571 10548 10524 10503 10486 10467 10447 10431 10413 10393 10377 10363 10354 10347 10341 10338 10338 10341 10344 10349 10356 10366 10380 10396 10409 10425 10435 10452 10469 10486 10495 10513 10532 10552 10574
10719 10708 10697 10686 10670 10654 10637 10623 10603 10580 10563 10539 10518 10493 10478 10459 10440 10419 10402 10385 10369 10356 10345 10340 10335 10331 10332 10334 10338 10343 10350 10361 10379 10390 10403 10415 10428 10443 10459 10478 10493 10518 10532 10548 10565
10710 10698 10687 10676 10663 10647 10629 10610 10593 10573 10554 10529 10507 10485 10467 10447 10431 10413 10394 10375 10361 10350 10339 10334 10329 10327 10327 10328 10332 10337 10344 10357 10373 10382 10396 10410 10425 10435 10454 10473 10491 10507 10524 10539 10553
10701 10689 10678 10665 10653 10636 10620 10600 10582 10564 10542 10523 10496 10479 10464 10442 10419 10403 10387 10369 10354 10345 10334 10329 10324 10323 10321 10322 10326 10332 10339 10354 10362 10372 10390 10408 10419 10432 10447 10471 10488 10500 10513 10529 10547
10692 10680 10668 10654 10639 10625 10607 10591 10573 10551 10527 10509 10490 10464 10444 10429 10413 10397 10379 10365 10349 10338 10330 10323 10319 10318 10316 10318 10322 10327 10336 10346 10353 10365 10381 10398 10416 10429 10452 10469 10472 10486 10506 10517 10536
10681 10670 10658 10645 10632 10615 10598 10580 10561 10545 10527 10504 10482 10459 10441 10427 10406 10388 10371 10359 10346 10336 10326 10320 10314 10314 10312 10314 10318 10323 10330 10339 10347 10361 10375 10389 10409 10422 10440 10448 10460 10472 10489 10506 10525
10669 10658 10647 10633 10620 10601 10585 10569 10552 10533 10510 10493 10468 10448 10436 10416 10402 10384 10366 10352 10340 10331 10322 10316 10311 10310 10309 10310 10314 10318 10326 10335 10347 10358 10369 10382 10398 10407 10424 10437 10449 10465 10485 10502 10516
10659 10647 10635 10621 10607 10590 10575 10562 10546 10527 10511 10488 10464 10436 10425 10413 10398 10379 10363 10347 10336 10327 10320 10314 10308 10306 10305 10306 10309 10314 10321 10329 10338 10347 10356 10373 10386 10404 10415 10430 10441 10459 10477 10488 10506
10649 10639 10627 10612 10596 10581 10565 10552 10535 10517 10503 10482 10457 10434 10416 10405 10390 10372 10360 10343 10332 10322 10316 10312 10305 10303 10302 10302 10305 10309 10315 10323 10329 10338 10352 10361 10376 10396 10408 10424 10436 10456 10466 10479 10494
10637 10627 10613 10601 10585 10571 10555 10540 10526 10510 10495 10477 10452 10429 10411 10398 10384 10367 10353 10340 10328 10319 10312 10308 10303 10301 10299 10298 10300 10305 10311 10316 10322 10333 10346 10355 10372 10388 10402 10413 10433 10446 10459 10470 10485
10626 10614 10600 10588 10573 10558 10544 10528 10514 10499 10485 10468 10445 10421 10405 10390 10377 10365 10347 10335 10324 10314 10307 10304 10301 10298 10296 10295 10296 10300 10306 10311 10317 10325 10337 10350 10364 10382 10395 10409 10428 10440 10448 10462 10478
10614 10602 10590 10577 10563 10549 10536 10521 10502 10490 10474 10455 10433 10408 10397 10386 10370 10357 10342 10330 10319 10310 10303 10299 10297 10295 10292 10292 10293 10295 10300 10306 10312 10322 10331 10341 10353 10370 10386 10404 10418 10430 10442 10456 10471
10602 10592 10577 10564 10552 10535 10520 10506 10491 10483 10466 10449 10432 10406 10385 10376 10366 10352 10337 10324 10314 10305 10298 10295 10292 10290 10289 10289 10290 10291 10296 10300 10307 10314 10326 10335 10344 10359 10379 10393 10408 10422 10436 10449 10465
10588 10577 10564 10550 10538 10521 10507 10491 10475 10466 10451 10432 10420 10401 10383 10368 10357 10345 10333 10319 10308 10300 10293 10290 10287 10285 10285 10285 10286 10287 10292 10297 10301 10308 10317 10329 10342 10354 10369 10389 10400 10413 10429 10445 10461
10575 10560 10550 10539 10524 10510 10495 10478 10468 10454 10440 10422 10406 10391 10372 10359 10350 10336 10324 10312 10302 10295 10288 10284 10281 10280 10280 10280 10282 10282 10285 10291 10297 10306 10312 10323 10335 10346 10360 10382 10392 10405 10421 10438 10453
10557 10547 10537 10528 10512 10495 10479 10465 10452 10440 10431 10416 10398 10384 10361 10348 10340 10328 10317 10306 10296 10288 10283 10278 10276 10275 10275 10275 10277 10278 10282 10286 10291 10299 10308 10316 10328 10341 10354 10373 10386 10397 10411 10429 10444